Location: Hardenberg
(52.5670°N, 6.6170°E)
Time: 06:30:06
(UTC+02:00)

ISS - Pass Details

Date: 19 May 2021
Orbit: 417 x 422 km, 51.6° (Epoch: 12 June)

Event Time Altitude Azimuth Distance (km) Brightness Sun altitude
Rises 02:05:29 0° 281° (W) 2,372 0.1 -17.2°
Reaches altitude 10° 02:07:40 10° 273° (W) 1,506 -1.0 -17.2°
Enters shadow 02:09:26 25° 254° (WSW) 886 -2.4 -17.2°
